User: anonymous   Login
Location: Brno
(49.2000°N, 16.6330°E)
Time: 19:20:20
(UTC+02:00)
Language:

Iridium 2 - Orbit

View from above orbital plane
View from above orbital plane
View from above satellite
View from above satellite

Ground track
Ground track

The orbit data is extracted from the following two-line orbital elements,

1 25527U 98066A   15183.43667794  .00002717  00000-0  15275-3 0  9994
2 25527 085.5338 093.7022 0009899 180.0483 269.6828 15.12781992909517
Epoch (UTC): 02 July 2015 10:28:48
Eccentricity: 0.0009899
inclination: 85.5338°
perigee height: 521 km
apogee height: 534 km
right ascension of ascending node: 93.7022°
argument of perigee: 180.0483°
revolutions per day: 15.12781992
mean anomaly at epoch: 269.6828°
orbit number at epoch: 90951

The dashed part of the orbit path shows where the satellite is in the earth's shadow,  

DLR